Location: El Limón
(10.3059°N, 67.6321°W)
Time: 13:27:29
(UTC+00:00)

MAQSAT/ARIANE V - Pass Details

Date: 14 April 2024
Orbit: 234 x 31993 km, 7.2° (Epoch: 27 May)

Event Time Altitude Azimuth Distance (km) Brightness Sun altitude
Exits shadow 07:35:59 26° 139° (SE) 2,259 4.9 -39.8°
Drops below altitude 10° 07:45:42 10° 110° (ESE) 6,452 7.7 -37.6°
Sets 08:01:12 0° 103° (ESE) 12,124 9.4 -34.0°
